Location: Acts Church of Fort Worth
(32.6786°N, 97.2668°W)
Time: 21:55:40
(UTC+00:00)

GRACE-FO 1 - Pass Details

Date: 18 January 2026
Orbit: 448 x 461 km, 89.0° (Epoch: 10 February)

Event Time Altitude Azimuth Distance (km) Brightness Sun altitude
Rises 01:01:42 0° 3° (N) 2,492 8.0 -15.5°
Reaches altitude 10° 01:03:47 10° 4° (N) 1,614 7.0 -15.9°
Maximum altitude 01:07:16 78° 91° (E) 476 4.3 -16.6°
Drops below altitude 10° 01:10:45 10° 178° (S) 1,602 7.3 -17.3°
Sets 01:12:48 0° 180° (S) 2,471 8.3 -17.7°
